This is the latest recevied weather packets stored in our database for station/object K9VSK-9. If no packets are shown the sender has not sent any weather packets the latest 1 day(s).
| Time | Temp. | Humidity | Pressure | Rain* | Wind** | Luminosity | Snow |
|---|---|---|---|---|---|---|---|
| 1778037885 | 9.44° C | 81% | 1012 hPa | 0 mm | - | - | - |
| 1778037583 | 9.44° C | 80% | 1012 hPa | 0 mm | - | - | - |
| 1778037283 | 9.44° C | 81% | 1012 hPa | 0 mm | - | - | - |
| 1778036983 | 9.44° C | 82% | 1012 hPa | 0 mm | - | - | - |
| 1778036383 | 10° C | 80% | 1012 hPa | 0 mm | - | - | - |
| 1778035782 | 10° C | 78% | 1011.9 hPa | 0 mm | - | - | - |
| 1778035181 | 10° C | 72% | 1011.9 hPa | 0 mm | - | - | - |
| 1778034881 | 10° C | 73% | 1011.9 hPa | 0 mm | - | - | - |
| 1778034581 | 10° C | 73% | 1011.8 hPa | 0 mm | - | - | - |
| 1778034280 | 10° C | 73% | 1011.7 hPa | 0 mm | - | - | - |
| 1778033981 | 10° C | 73% | 1011.5 hPa | 0 mm | - | - | - |
| 1778033681 | 10° C | 69% | 1011.4 hPa | 0 mm | - | - | - |
| 1778033079 | 10° C | 69% | 1011 hPa | 0 mm | - | - | - |
| 1778032779 | 10° C | 70% | 1011 hPa | 0 mm | - | - | - |
| 1778032178 | 10.56° C | 67% | 1011 hPa | 0 mm | - | - | - |
| 1778031578 | 10.56° C | 64% | 1011.2 hPa | 0 mm | - | - | - |
| 1778030978 | 10.56° C | 65% | 1011 hPa | 0 mm | - | - | - |
| 1778030677 | 10.56° C | 66% | 1010.9 hPa | 0 mm | - | - | - |
| 1778030078 | 10.56° C | 67% | 1010.7 hPa | 0 mm | - | - | - |
| 1778029776 | 10.56° C | 67% | 1010.5 hPa | 0 mm | - | - | - |
| 1778029476 | 10.56° C | 66% | 1010.6 hPa | 0 mm | - | - | - |
| 1778028875 | 10.56° C | 65% | 1010.5 hPa | 0 mm | - | - | - |
| 1778028575 | 10.56° C | 65% | 1010.5 hPa | 0 mm | - | - | - |
| 1778028275 | 10.56° C | 66% | 1010.4 hPa | 0 mm | - | - | - |
| 1778027974 | 11.11° C | 66% | 1010.3 hPa | 0 mm | - | - | - |
* Rain latest hour (hover to see other rain measurements)
** Current wind speed in m/s (hover to see current wind gust speed)